Time,TemperatureF,DewpointF,PressureIn,WindDirection,WindDirectionDegrees,WindSpeedMPH,WindSpeedGustMPH,Humidity,HourlyPrecipIn,Conditions,Clouds,dailyrainin,SoftwareType,DateUTC
2013-02-27 00:00:00,43.2,29.8,30.13,NE,45,0.0,0.0,59,0.00,,,0.00,WUHU21623XXSP,2013-02-27 08:00:00,
2013-02-27 00:05:00,43.2,29.8,30.13,NE,45,0.0,0.0,59,0.00,,,0.00,WUHU21623XXSP,2013-02-27 08:05:00,
2013-02-27 00:10:00,43.2,29.8,30.13,NE,45,0.0,0.0,59,0.00,,,0.00,WUHU21623XXSP,2013-02-27 08:10:00,
2013-02-27 00:15:00,43.2,29.8,30.13,NE,45,0.0,0.0,59,0.00,,,0.00,WUHU21623XXSP,2013-02-27 08:15:00,
2013-02-27 00:20:00,43.2,29.8,30.13,NE,45,0.0,0.0,59,0.00,,,0.00,WUHU21623XXSP,2013-02-27 08:20:00,
2013-02-27 00:25:00,43.3,29.9,30.14,NE,45,0.0,0.0,59,0.00,,,0.00,WUHU21623XXSP,2013-02-27 08:25:00,
2013-02-27 00:30:00,43.3,29.9,30.13,NE,45,0.0,0.0,59,0.00,,,0.00,WUHU21623XXSP,2013-02-27 08:30:00,
2013-02-27 00:35:00,43.2,29.9,30.14,NE,45,0.0,0.0,58,0.00,,,0.00,WUHU21623XXSP,2013-02-27 08:35:00,
2013-02-27 00:40:00,43.2,28.9,30.14,NE,45,0.0,0.0,57,0.02,,,0.02,WUHU21623XXSP,2013-02-27 08:40:00,
2013-02-27 00:45:00,43.0,28.7,30.14,NE,45,0.0,0.0,57,0.02,,,0.02,WUHU21623XXSP,2013-02-27 08:45:00,
2013-02-27 00:50:00,43.0,28.3,30.14,SSW,202,0.0,0.0,56,0.02,,,0.02,WUHU21623XXSP,2013-02-27 08:50:00,
2013-02-27 00:55:00,42.8,27.7,30.14,SSW,202,0.0,0.0,55,0.02,,,0.02,WUHU21623XXSP,2013-02-27 08:55:00,
2013-02-27 01:00:00,42.8,27.7,30.14,SW,225,0.0,0.0,55,0.02,,,0.02,WUHU21623XXSP,2013-02-27 09:00:00,
2013-02-27 01:05:00,42.6,27.5,30.14,NNW,337,0.0,0.0,55,0.02,,,0.02,WUHU21623XXSP,2013-02-27 09:05:00,
2013-02-27 01:10:00,42.6,27.1,30.14,East,90,0.0,0.0,54,0.02,,,0.02,WUHU21623XXSP,2013-02-27 09:10:00,
2013-02-27 01:15:00,42.6,26.6,30.14,South,180,0.0,0.0,53,0.02,,,0.02,WUHU21623XXSP,2013-02-27 09:15:00,
2013-02-27 01:20:00,42.6,26.6,30.14,SW,225,0.0,0.0,53,0.02,,,0.02,WUHU21623XXSP,2013-02-27 09:20:00,
2013-02-27 01:25:00,42.6,26.6,30.14,South,180,0.0,0.0,53,0.02,,,0.02,WUHU21623XXSP,2013-02-27 09:25:00,
2013-02-27 01:30:00,42.6,26.2,30.14,SSW,202,0.0,0.0,52,0.02,,,0.02,WUHU21623XXSP,2013-02-27 09:30:00,
2013-02-27 01:35:00,42.6,26.2,30.14,SW,225,0.0,0.0,52,0.02,,,0.02,WUHU21623XXSP,2013-02-27 09:35:00,
2013-02-27 01:40:00,42.6,26.2,30.15,South,180,0.0,0.0,52,0.00,,,0.02,WUHU21623XXSP,2013-02-27 09:40:00,
2013-02-27 01:45:00,42.6,26.2,30.15,SSW,202,0.0,0.0,52,0.00,,,0.02,WUHU21623XXSP,2013-02-27 09:45:00,
2013-02-27 01:50:00,42.6,26.2,30.15,NE,45,0.0,0.0,52,0.00,,,0.02,WUHU21623XXSP,2013-02-27 09:50:00,
2013-02-27 01:55:00,42.6,26.2,30.15,SSW,202,0.0,0.0,52,0.00,,,0.02,WUHU21623XXSP,2013-02-27 09:55:00,
2013-02-27 02:00:00,42.6,26.2,30.15,SSW,202,0.0,3.6,52,0.00,,,0.02,WUHU21623XXSP,2013-02-27 10:00:00,
2013-02-27 02:05:00,42.6,26.2,30.15,SSE,157,0.0,3.6,52,0.00,,,0.02,WUHU21623XXSP,2013-02-27 10:05:00,
2013-02-27 02:10:00,42.8,26.4,30.15,SSE,157,0.0,0.0,52,0.00,,,0.02,WUHU21623XXSP,2013-02-27 10:10:00,
2013-02-27 02:15:00,43.0,26.5,30.15,SSW,202,0.0,0.0,52,0.00,,,0.02,WUHU21623XXSP,2013-02-27 10:15:00,
2013-02-27 02:20:00,43.0,26.5,30.15,ESE,112,0.0,0.0,52,0.00,,,0.02,WUHU21623XXSP,2013-02-27 10:20:00,
2013-02-27 02:25:00,43.0,26.5,30.15,SSE,157,2.2,2.2,52,0.00,,,0.02,WUHU21623XXSP,2013-02-27 10:25:00,
2013-02-27 02:30:00,43.0,27.0,30.15,West,270,0.0,8.3,53,0.00,,,0.02,WUHU21623XXSP,2013-02-27 10:30:00,
2013-02-27 02:35:00,43.0,27.0,30.15,NNW,337,0.0,8.3,53,0.00,,,0.02,WUHU21623XXSP,2013-02-27 10:35:00,
2013-02-27 02:40:00,43.2,27.1,30.15,WSW,247,0.0,4.3,53,0.00,,,0.02,WUHU21623XXSP,2013-02-27 10:40:00,
2013-02-27 02:45:00,43.0,27.4,30.15,SSW,202,4.3,4.3,54,0.00,,,0.02,WUHU21623XXSP,2013-02-27 10:45:00,
2013-02-27 02:50:00,43.0,27.4,30.15,South,180,0.0,4.3,54,0.00,,,0.02,WUHU21623XXSP,2013-02-27 10:50:00,
2013-02-27 02:55:00,43.0,27.4,30.15,SW,225,0.0,6.0,54,0.00,,,0.02,WUHU21623XXSP,2013-02-27 10:55:00,
2013-02-27 03:01:00,43.0,27.0,30.16,SSW,202,0.0,6.0,53,0.00,,,0.02,WUHU21623XXSP,2013-02-27 11:01:00,
2013-02-27 03:05:00,43.0,27.0,30.16,ESE,112,0.0,0.0,53,0.00,,,0.02,WUHU21623XXSP,2013-02-27 11:05:00,
2013-02-27 03:10:00,43.0,27.0,30.16,South,180,0.0,0.0,53,0.00,,,0.02,WUHU21623XXSP,2013-02-27 11:10:00,
2013-02-27 03:15:00,43.0,26.5,30.16,South,180,2.7,2.7,52,0.00,,,0.02,WUHU21623XXSP,2013-02-27 11:15:00,
2013-02-27 03:20:00,42.8,26.4,30.16,SSE,157,0.0,2.7,52,0.00,,,0.02,WUHU21623XXSP,2013-02-27 11:20:00,
2013-02-27 03:25:00,42.6,25.8,30.15,South,180,0.0,0.0,51,0.00,,,0.02,WUHU21623XXSP,2013-02-27 11:25:00,
2013-02-27 03:30:00,42.6,25.8,30.15,NNW,337,0.0,0.0,51,0.00,,,0.02,WUHU21623XXSP,2013-02-27 11:30:00,
2013-02-27 03:35:00,42.6,25.3,30.15,SSE,157,0.0,0.0,50,0.00,,,0.02,WUHU21623XXSP,2013-02-27 11:35:00,
2013-02-27 03:40:00,42.4,25.2,30.15,SSW,202,0.0,0.0,50,0.00,,,0.02,WUHU21623XXSP,2013-02-27 11:40:00,
2013-02-27 03:45:00,42.4,25.2,30.15,SSW,202,0.0,0.0,50,0.00,,,0.02,WUHU21623XXSP,2013-02-27 11:45:00,
2013-02-27 03:50:00,42.4,24.6,30.15,SSW,202,0.0,0.0,49,0.00,,,0.02,WUHU21623XXSP,2013-02-27 11:50:00,
2013-02-27 03:55:00,42.3,24.4,30.15,WSW,247,0.0,0.0,49,0.00,,,0.02,WUHU21623XXSP,2013-02-27 11:55:00,
2013-02-27 04:00:00,42.3,24.4,30.15,WSW,247,0.0,0.0,49,0.00,,,0.02,WUHU21623XXSP,2013-02-27 12:00:00,
2013-02-27 04:05:00,42.1,24.3,30.15,WSW,247,0.0,0.0,49,0.00,,,0.02,WUHU21623XXSP,2013-02-27 12:05:00,
2013-02-27 04:10:00,42.1,24.3,30.15,SW,225,0.0,0.0,49,0.00,,,0.02,WUHU21623XXSP,2013-02-27 12:10:00,
2013-02-27 04:15:00,42.1,24.3,30.15,North,0,0.0,0.0,49,0.00,,,0.02,WUHU21623XXSP,2013-02-27 12:15:00,
2013-02-27 04:20:00,41.9,24.1,30.15,NNE,22,0.0,0.0,49,0.00,,,0.02,WUHU21623XXSP,2013-02-27 12:20:00,
2013-02-27 04:25:00,41.9,24.1,30.15,NNE,22,0.0,0.0,49,0.00,,,0.02,WUHU21623XXSP,2013-02-27 12:25:00,
2013-02-27 04:30:00,41.9,24.1,30.15,NE,45,0.0,0.0,49,0.00,,,0.02,WUHU21623XXSP,2013-02-27 12:30:00,
2013-02-27 04:35:00,42.1,24.3,30.16,ENE,67,0.0,0.0,49,0.00,,,0.02,WUHU21623XXSP,2013-02-27 12:35:00,
2013-02-27 04:41:00,42.1,23.7,30.16,SE,135,0.0,0.0,48,0.00,,,0.02,WUHU21623XXSP,2013-02-27 12:41:00,
2013-02-27 04:46:00,42.1,23.7,30.16,NE,45,0.0,0.0,48,0.00,,,0.02,WUHU21623XXSP,2013-02-27 12:46:00,
2013-02-27 04:51:00,42.1,24.3,30.16,NE,45,0.0,0.0,49,0.00,,,0.02,WUHU21623XXSP,2013-02-27 12:51:00,
2013-02-27 04:56:00,42.3,24.4,30.16,NE,45,0.0,0.0,49,0.00,,,0.02,WUHU21623XXSP,2013-02-27 12:56:00,
2013-02-27 05:01:00,42.3,24.4,30.16,NE,45,0.0,0.0,49,0.00,,,0.02,WUHU21623XXSP,2013-02-27 13:01:00,
2013-02-27 05:06:00,42.1,24.3,30.16,NE,45,0.0,0.0,49,0.00,,,0.02,WUHU21623XXSP,2013-02-27 13:06:00,
2013-02-27 05:11:00,41.9,24.1,30.16,ENE,67,0.0,0.0,49,0.00,,,0.02,WUHU21623XXSP,2013-02-27 13:11:00,
2013-02-27 05:16:00,41.9,24.1,30.16,ENE,67,0.0,0.0,49,0.00,,,0.02,WUHU21623XXSP,2013-02-27 13:16:00,
2013-02-27 05:21:00,41.9,24.1,30.17,ENE,67,0.0,0.0,49,0.00,,,0.02,WUHU21623XXSP,2013-02-27 13:21:00,
2013-02-27 05:26:00,41.9,24.1,30.16,ENE,67,0.0,0.0,49,0.00,,,0.02,WUHU21623XXSP,2013-02-27 13:26:00,
2013-02-27 05:31:00,41.9,23.6,30.17,ENE,67,0.0,0.0,48,0.00,,,0.02,WUHU21623XXSP,2013-02-27 13:31:00,
2013-02-27 05:36:00,41.9,23.6,30.18,ENE,67,0.0,0.0,48,0.00,,,0.02,WUHU21623XXSP,2013-02-27 13:36:00,
2013-02-27 05:41:00,41.7,23.4,30.18,NE,45,0.0,0.0,48,0.00,,,0.02,WUHU21623XXSP,2013-02-27 13:41:00,
2013-02-27 05:46:00,41.7,23.4,30.17,NE,45,0.0,0.0,48,0.00,,,0.02,WUHU21623XXSP,2013-02-27 13:46:00,
2013-02-27 05:51:00,41.7,23.4,30.18,NE,45,0.0,0.0,48,0.00,,,0.02,WUHU21623XXSP,2013-02-27 13:51:00,
2013-02-27 05:56:00,41.5,22.7,30.18,NE,45,0.0,0.0,47,0.00,,,0.02,WUHU21623XXSP,2013-02-27 13:56:00,
2013-02-27 06:02:00,41.5,22.7,30.19,NE,45,0.0,0.0,47,0.00,,,0.02,WUHU21623XXSP,2013-02-27 14:02:00,
2013-02-27 06:07:00,41.5,22.7,30.19,NE,45,0.0,0.0,47,0.00,,,0.02,WUHU21623XXSP,2013-02-27 14:07:00,
2013-02-27 06:12:00,41.5,22.1,30.18,NE,45,0.0,0.0,46,0.00,,,0.02,WUHU21623XXSP,2013-02-27 14:12:00,
2013-02-27 06:17:00,41.5,22.1,30.19,NE,45,0.0,0.0,46,0.00,,,0.02,WUHU21623XXSP,2013-02-27 14:17:00,
2013-02-27 06:22:00,41.5,22.1,30.19,NE,45,0.0,0.0,46,0.00,,,0.02,WUHU21623XXSP,2013-02-27 14:22:00,
2013-02-27 06:27:00,41.5,22.1,30.19,NE,45,0.0,0.0,46,0.00,,,0.02,WUHU21623XXSP,2013-02-27 14:27:00,
2013-02-27 06:32:00,41.5,21.6,30.19,NE,45,0.0,0.0,45,0.00,,,0.02,WUHU21623XXSP,2013-02-27 14:32:00,
2013-02-27 06:37:00,41.5,21.6,30.19,NE,45,0.0,0.0,45,0.00,,,0.02,WUHU21623XXSP,2013-02-27 14:37:00,
2013-02-27 06:42:00,41.5,21.6,30.19,NE,45,0.0,0.0,45,0.00,,,0.02,WUHU21623XXSP,2013-02-27 14:42:00,
2013-02-27 06:47:00,41.4,21.5,30.19,NE,45,0.0,0.0,45,0.00,,,0.02,WUHU21623XXSP,2013-02-27 14:47:00,
2013-02-27 06:52:00,41.4,21.5,30.19,NE,45,0.0,0.0,45,0.00,,,0.02,WUHU21623XXSP,2013-02-27 14:52:00,
2013-02-27 06:57:00,41.4,20.9,30.19,NE,45,0.0,0.0,44,0.00,,,0.02,WUHU21623XXSP,2013-02-27 14:57:00,
2013-02-27 07:02:00,41.4,20.9,30.19,NE,45,0.0,0.0,44,0.00,,,0.02,WUHU21623XXSP,2013-02-27 15:02:00,
2013-02-27 07:07:00,41.2,20.8,30.19,NE,45,0.0,0.0,44,0.00,,,0.02,WUHU21623XXSP,2013-02-27 15:07:00,
2013-02-27 07:12:00,41.2,20.8,30.19,NE,45,0.0,0.0,44,0.00,,,0.02,WUHU21623XXSP,2013-02-27 15:12:00,
2013-02-27 07:17:00,41.2,20.8,30.19,NE,45,0.0,0.0,44,0.00,,,0.02,WUHU21623XXSP,2013-02-27 15:17:00,
2013-02-27 07:22:00,41.2,20.8,30.19,NE,45,0.0,0.0,44,0.00,,,0.02,WUHU21623XXSP,2013-02-27 15:22:00,
2013-02-27 07:27:00,41.2,20.2,30.19,NE,45,0.0,0.0,43,0.00,,,0.02,WUHU21623XXSP,2013-02-27 15:27:00,
2013-02-27 07:32:00,41.2,20.2,30.19,NE,45,0.0,0.0,43,0.00,,,0.02,WUHU21623XXSP,2013-02-27 15:32:00,
2013-02-27 07:37:00,41.4,20.4,30.19,NE,45,0.0,0.0,43,0.00,,,0.02,WUHU21623XXSP,2013-02-27 15:37:00,
2013-02-27 07:42:00,41.5,20.0,30.19,NE,45,0.0,0.0,42,0.00,,,0.02,WUHU21623XXSP,2013-02-27 15:42:00,
2013-02-27 07:47:00,41.7,20.2,30.19,NE,45,0.0,0.0,42,0.00,,,0.02,WUHU21623XXSP,2013-02-27 15:47:00,
2013-02-27 07:52:00,42.1,20.5,30.19,NE,45,0.0,0.0,42,0.00,,,0.02,WUHU21623XXSP,2013-02-27 15:52:00,
2013-02-27 07:57:00,42.1,21.1,30.19,ESE,112,0.0,0.0,43,0.00,,,0.02,WUHU21623XXSP,2013-02-27 15:57:00,
2013-02-27 08:02:00,42.4,21.4,30.19,ESE,112,0.0,0.0,43,0.00,,,0.02,WUHU21623XXSP,2013-02-27 16:02:00,
2013-02-27 08:07:00,42.6,21.6,30.19,ESE,112,0.0,0.0,43,0.00,,,0.02,WUHU21623XXSP,2013-02-27 16:07:00,
2013-02-27 08:12:00,42.8,21.7,30.19,SSE,157,0.0,0.0,43,0.00,,,0.02,WUHU21623XXSP,2013-02-27 16:12:00,
2013-02-27 08:17:00,43.0,22.4,30.19,SSW,202,0.0,0.0,44,0.00,,,0.02,WUHU21623XXSP,2013-02-27 16:17:00,
2013-02-27 08:22:00,43.2,22.6,30.19,SE,135,0.0,0.0,44,0.00,,,0.02,WUHU21623XXSP,2013-02-27 16:22:00,
2013-02-27 08:27:00,43.3,23.3,30.20,NE,45,0.0,0.0,45,0.00,,,0.02,WUHU21623XXSP,2013-02-27 16:27:00,
2013-02-27 08:32:00,43.5,23.5,30.19,West,270,0.0,0.0,45,0.00,,,0.02,WUHU21623XXSP,2013-02-27 16:32:00,
2013-02-27 08:37:00,43.7,24.2,30.20,ESE,112,0.0,1.1,46,0.00,,,0.02,WUHU21623XXSP,2013-02-27 16:37:00,
2013-02-27 08:42:00,43.9,24.2,30.20,SE,135,0.0,1.1,46,0.00,,,0.02,WUHU21623XXSP,2013-02-27 16:42:00,
2013-02-27 08:47:00,44.1,24.5,30.20,WNW,292,0.0,0.0,46,0.00,,,0.02,WUHU21623XXSP,2013-02-27 16:47:00,
2013-02-27 08:52:00,44.2,24.7,30.19,ESE,112,0.0,0.0,46,0.00,,,0.02,WUHU21623XXSP,2013-02-27 16:52:00,
2013-02-27 08:57:00,44.2,24.7,30.19,NE,45,0.0,0.0,46,0.00,,,0.02,WUHU21623XXSP,2013-02-27 16:57:00,
2013-02-27 09:02:00,43.9,24.9,30.19,NE,45,0.0,0.0,47,0.00,,,0.02,WUHU21623XXSP,2013-02-27 17:02:00,
2013-02-27 09:07:00,43.7,24.2,30.20,ENE,67,3.4,3.4,46,0.00,,,0.02,WUHU21623XXSP,2013-02-27 17:07:00,
2013-02-27 09:12:00,43.7,24.2,30.20,ESE,112,0.0,3.4,46,0.00,,,0.02,WUHU21623XXSP,2013-02-27 17:12:00,
2013-02-27 09:17:00,43.7,24.2,30.19,NE,45,0.0,0.0,46,0.00,,,0.02,WUHU21623XXSP,2013-02-27 17:17:00,
2013-02-27 09:22:00,43.7,23.6,30.18,SE,135,0.0,0.0,45,0.00,,,0.02,WUHU21623XXSP,2013-02-27 17:22:00,
2013-02-27 09:27:00,43.9,23.3,30.18,East,90,0.0,0.0,44,0.00,,,0.02,WUHU21623XXSP,2013-02-27 17:27:00,
2013-02-27 09:32:00,44.1,22.9,30.18,East,90,0.0,0.0,43,0.00,,,0.02,WUHU21623XXSP,2013-02-27 17:32:00,
2013-02-27 09:37:00,44.4,22.7,30.18,ENE,67,0.0,0.0,42,0.00,,,0.02,WUHU21623XXSP,2013-02-27 17:37:00,
2013-02-27 09:42:00,44.6,22.7,30.18,ENE,67,0.0,0.0,42,0.00,,,0.02,WUHU21623XXSP,2013-02-27 17:42:00,
2013-02-27 09:47:00,45.0,23.1,30.18,SE,135,0.0,0.0,42,0.00,,,0.02,WUHU21623XXSP,2013-02-27 17:47:00,
2013-02-27 09:52:00,45.7,24.3,30.17,NNE,22,0.0,0.0,43,0.00,,,0.02,WUHU21623XXSP,2013-02-27 17:52:00,
2013-02-27 09:57:00,46.0,24.7,30.18,ENE,67,0.0,0.0,43,0.00,,,0.02,WUHU21623XXSP,2013-02-27 17:57:00,
2013-02-27 10:02:00,46.6,25.7,30.17,North,0,0.0,3.1,44,0.00,,,0.02,WUHU21623XXSP,2013-02-27 18:02:00,
2013-02-27 10:07:00,46.8,26.9,30.18,SW,225,2.5,4.0,46,0.00,,,0.02,WUHU21623XXSP,2013-02-27 18:07:00,
2013-02-27 10:12:00,46.9,27.1,30.18,NW,315,0.0,4.0,46,0.00,,,0.02,WUHU21623XXSP,2013-02-27 18:12:00,
2013-02-27 10:17:00,46.9,27.6,30.17,SSW,202,0.0,0.0,48,0.00,,,0.02,WUHU21623XXSP,2013-02-27 18:17:00,
2013-02-27 10:22:00,46.9,28.7,30.17,SE,135,3.1,3.1,49,0.00,,,0.02,WUHU21623XXSP,2013-02-27 18:22:00,
2013-02-27 10:27:00,46.9,29.2,30.17,SSW,202,1.3,3.1,50,0.00,,,0.02,WUHU21623XXSP,2013-02-27 18:27:00,
2013-02-27 10:32:00,47.1,29.4,30.18,SSW,202,0.0,1.3,50,0.00,,,0.02,WUHU21623XXSP,2013-02-27 18:32:00,
2013-02-27 10:37:00,47.1,29.9,30.18,South,180,0.0,6.9,51,0.00,,,0.02,WUHU21623XXSP,2013-02-27 18:37:00,
2013-02-27 10:42:00,47.1,29.9,30.18,ENE,67,0.0,6.9,51,0.00,,,0.02,WUHU21623XXSP,2013-02-27 18:42:00,
2013-02-27 10:47:00,47.1,29.9,30.18,SW,225,0.0,2.0,51,0.00,,,0.02,WUHU21623XXSP,2013-02-27 18:47:00,
2013-02-27 10:52:00,47.3,30.5,30.18,ESE,112,0.0,0.0,52,0.00,,,0.02,WUHU21623XXSP,2013-02-27 18:52:00,
2013-02-27 10:57:00,47.5,30.6,30.18,ESE,112,0.0,0.0,52,0.00,,,0.02,WUHU21623XXSP,2013-02-27 18:57:00,
2013-02-27 11:02:00,48.0,31.1,30.19,WSW,247,3.6,3.6,52,0.00,,,0.02,WUHU21623XXSP,2013-02-27 19:02:00,
2013-02-27 11:07:00,48.4,31.9,30.18,West,270,0.0,3.6,53,0.00,,,0.02,WUHU21623XXSP,2013-02-27 19:07:00,
2013-02-27 11:12:00,48.7,31.8,30.19,SSE,157,0.0,2.5,52,0.00,,,0.02,WUHU21623XXSP,2013-02-27 19:12:00,
2013-02-27 11:17:00,49.3,32.4,30.19,SE,135,6.0,6.0,52,0.00,,,0.02,WUHU21623XXSP,2013-02-27 19:17:00,
2013-02-27 11:22:00,49.6,33.6,30.20,SSW,202,0.0,6.0,54,0.00,,,0.02,WUHU21623XXSP,2013-02-27 19:22:00,
2013-02-27 11:27:00,49.8,34.3,30.20,North,0,0.0,0.0,55,0.00,,,0.02,WUHU21623XXSP,2013-02-27 19:27:00,
2013-02-27 11:33:00,49.8,34.3,30.20,SSE,157,0.0,0.0,55,0.00,,,0.02,WUHU21623XXSP,2013-02-27 19:33:00,
2013-02-27 11:37:00,50.2,35.0,30.20,South,180,0.0,3.8,56,0.00,,,0.02,WUHU21623XXSP,2013-02-27 19:37:00,
2013-02-27 11:42:00,50.2,35.0,30.20,East,90,0.0,3.8,56,0.00,,,0.02,WUHU21623XXSP,2013-02-27 19:42:00,
2013-02-27 11:47:00,50.2,35.5,30.20,ENE,67,0.0,0.0,57,0.00,,,0.02,WUHU21623XXSP,2013-02-27 19:47:00,
2013-02-27 11:52:00,50.2,35.5,30.20,South,180,0.0,0.0,57,0.00,,,0.02,WUHU21623XXSP,2013-02-27 19:52:00,
2013-02-27 11:57:00,50.5,35.2,30.20,SSE,157,0.0,0.0,56,0.00,,,0.02,WUHU21623XXSP,2013-02-27 19:57:00,
2013-02-27 12:02:00,50.9,36.1,30.20,SSE,157,0.0,3.8,57,0.00,,,0.02,WUHU21623XXSP,2013-02-27 20:02:00,
2013-02-27 12:07:00,51.3,36.9,30.20,West,270,6.0,6.0,58,0.00,,,0.02,WUHU21623XXSP,2013-02-27 20:07:00,
2013-02-27 12:12:00,51.1,36.8,30.20,SSW,202,0.0,6.0,58,0.00,,,0.02,WUHU21623XXSP,2013-02-27 20:12:00,
2013-02-27 12:17:00,50.9,36.6,30.20,East,90,0.0,0.0,58,0.00,,,0.02,WUHU21623XXSP,2013-02-27 20:17:00,
2013-02-27 12:22:00,50.7,36.4,30.19,SW,225,0.0,0.0,58,0.00,,,0.02,WUHU21623XXSP,2013-02-27 20:22:00,
2013-02-27 12:27:00,50.7,36.9,30.19,ESE,112,3.6,5.1,59,0.00,,,0.02,WUHU21623XXSP,2013-02-27 20:27:00,
2013-02-27 12:32:00,50.5,36.7,30.20,SE,135,0.0,5.1,59,0.00,,,0.02,WUHU21623XXSP,2013-02-27 20:32:00,
2013-02-27 12:37:00,50.2,36.4,30.20,SSE,157,0.0,1.3,59,0.00,,,0.02,WUHU21623XXSP,2013-02-27 20:37:00,
2013-02-27 12:42:00,49.8,36.0,30.20,East,90,6.5,6.5,59,0.00,,,0.02,WUHU21623XXSP,2013-02-27 20:42:00,
2013-02-27 12:47:00,49.6,35.9,30.20,ESE,112,5.4,6.5,59,0.00,,,0.02,WUHU21623XXSP,2013-02-27 20:47:00,
2013-02-27 12:52:00,49.3,35.6,30.19,ESE,112,2.2,5.4,59,0.00,,,0.02,WUHU21623XXSP,2013-02-27 20:52:00,
2013-02-27 12:57:00,49.1,35.4,30.19,SE,135,0.0,5.4,59,0.00,,,0.02,WUHU21623XXSP,2013-02-27 20:57:00,
2013-02-27 13:02:00,49.3,35.6,30.19,NE,45,0.0,4.0,59,0.00,,,0.02,WUHU21623XXSP,2013-02-27 21:02:00,
2013-02-27 13:07:00,49.8,35.6,30.19,NE,45,4.0,4.0,58,0.00,,,0.02,WUHU21623XXSP,2013-02-27 21:07:00,
2013-02-27 13:12:00,49.8,36.0,30.19,ENE,67,0.0,6.9,59,0.00,,,0.02,WUHU21623XXSP,2013-02-27 21:12:00,
2013-02-27 13:17:00,50.2,36.4,30.19,SSE,157,0.0,6.9,59,0.00,,,0.02,WUHU21623XXSP,2013-02-27 21:17:00,
2013-02-27 13:22:00,50.4,36.6,30.19,ESE,112,0.0,0.0,59,0.00,,,0.02,WUHU21623XXSP,2013-02-27 21:22:00,
2013-02-27 13:27:00,50.5,36.7,30.19,ENE,67,0.0,0.0,59,0.00,,,0.02,WUHU21623XXSP,2013-02-27 21:27:00,
2013-02-27 13:32:00,50.5,36.7,30.18,SE,135,1.6,1.6,59,0.00,,,0.02,WUHU21623XXSP,2013-02-27 21:32:00,
2013-02-27 13:37:00,50.5,36.7,30.18,North,0,0.0,1.6,59,0.00,,,0.02,WUHU21623XXSP,2013-02-27 21:37:00,
2013-02-27 13:42:00,50.7,36.9,30.18,ESE,112,0.0,0.0,59,0.00,,,0.02,WUHU21623XXSP,2013-02-27 21:42:00,
2013-02-27 13:47:00,50.9,37.0,30.19,SE,135,0.0,4.3,59,0.00,,,0.02,WUHU21623XXSP,2013-02-27 21:47:00,
2013-02-27 13:52:00,51.3,37.4,30.18,SSW,202,0.0,4.3,59,0.00,,,0.02,WUHU21623XXSP,2013-02-27 21:52:00,
2013-02-27 13:57:00,51.3,37.8,30.18,WSW,247,0.0,0.0,60,0.00,,,0.02,WUHU21623XXSP,2013-02-27 21:57:00,
2013-02-27 14:02:00,51.3,37.8,30.18,ENE,67,0.0,0.0,60,0.00,,,0.02,WUHU21623XXSP,2013-02-27 22:02:00,
2013-02-27 14:07:00,51.4,38.0,30.18,SSE,157,0.0,0.0,60,0.00,,,0.02,WUHU21623XXSP,2013-02-27 22:07:00,
2013-02-27 14:12:00,51.4,38.0,30.17,WNW,292,0.0,0.0,60,0.00,,,0.02,WUHU21623XXSP,2013-02-27 22:12:00,
2013-02-27 14:17:00,51.4,38.0,30.17,SE,135,0.0,4.7,60,0.00,,,0.02,WUHU21623XXSP,2013-02-27 22:17:00,
2013-02-27 14:22:00,51.4,38.0,30.17,SSE,157,0.0,4.7,60,0.00,,,0.02,WUHU21623XXSP,2013-02-27 22:22:00,
2013-02-27 14:27:00,51.3,37.8,30.17,SW,225,0.0,7.6,60,0.00,,,0.02,WUHU21623XXSP,2013-02-27 22:27:00,
2013-02-27 14:32:00,50.9,37.9,30.16,WSW,247,0.0,7.6,61,0.00,,,0.02,WUHU21623XXSP,2013-02-27 22:32:00,
2013-02-27 14:37:00,50.5,37.6,30.16,ESE,112,0.0,6.5,61,0.00,,,0.02,WUHU21623XXSP,2013-02-27 22:37:00,
2013-02-27 14:42:00,50.2,37.2,30.16,NE,45,0.0,0.0,61,0.00,,,0.02,WUHU21623XXSP,2013-02-27 22:42:00,
2013-02-27 14:47:00,50.2,36.8,30.16,ESE,112,0.0,0.0,60,0.00,,,0.02,WUHU21623XXSP,2013-02-27 22:47:00,
2013-02-27 14:52:00,49.8,36.5,30.17,SE,135,2.5,2.5,60,0.00,,,0.02,WUHU21623XXSP,2013-02-27 22:52:00,
2013-02-27 14:57:00,49.8,36.5,30.17,South,180,1.3,2.5,60,0.00,,,0.02,WUHU21623XXSP,2013-02-27 22:57:00,
2013-02-27 15:02:00,49.8,36.5,30.17,ENE,67,0.0,1.3,60,0.00,,,0.02,WUHU21623XXSP,2013-02-27 23:02:00,
2013-02-27 15:07:00,49.6,36.4,30.17,SSW,202,0.0,0.0,60,0.00,,,0.02,WUHU21623XXSP,2013-02-27 23:07:00,
2013-02-27 15:12:00,49.6,36.4,30.17,SSE,157,3.8,3.8,60,0.00,,,0.02,WUHU21623XXSP,2013-02-27 23:12:00,
2013-02-27 15:17:00,49.3,36.0,30.17,SW,225,1.1,6.0,60,0.00,,,0.02,WUHU21623XXSP,2013-02-27 23:17:00,
2013-02-27 15:22:00,49.3,36.0,30.18,South,180,0.0,6.0,60,0.00,,,0.02,WUHU21623XXSP,2013-02-27 23:22:00,
2013-02-27 15:27:00,49.1,35.9,30.18,South,180,0.0,0.0,60,0.00,,,0.02,WUHU21623XXSP,2013-02-27 23:27:00,
2013-02-27 15:32:00,48.9,35.2,30.17,South,180,0.0,0.0,59,0.00,,,0.02,WUHU21623XXSP,2013-02-27 23:32:00,
2013-02-27 15:37:00,48.7,35.1,30.17,NNE,22,0.0,0.0,59,0.00,,,0.02,WUHU21623XXSP,2013-02-27 23:37:00,
2013-02-27 15:42:00,48.7,35.1,30.17,NNE,22,0.0,0.0,59,0.00,,,0.02,WUHU21623XXSP,2013-02-27 23:42:00,
2013-02-27 15:47:00,48.7,34.6,30.17,NNE,22,0.0,0.0,58,0.00,,,0.02,WUHU21623XXSP,2013-02-27 23:47:00,
2013-02-27 15:52:00,48.7,34.6,30.17,NNE,22,0.0,0.0,58,0.00,,,0.02,WUHU21623XXSP,2013-02-27 23:52:00,
2013-02-27 15:57:00,48.7,34.6,30.17,SW,225,2.5,2.5,58,0.00,,,0.02,WUHU21623XXSP,2013-02-27 23:57:00,
2013-02-27 16:02:00,48.7,34.6,30.17,ESE,112,0.0,2.5,58,0.00,,,0.02,WUHU21623XXSP,2013-02-28 00:02:00,
2013-02-27 16:07:00,48.9,34.8,30.17,ESE,112,0.0,2.5,58,0.00,,,0.02,WUHU21623XXSP,2013-02-28 00:07:00,
2013-02-27 16:12:00,48.9,34.8,30.17,NNE,22,0.0,0.0,58,0.00,,,0.02,WUHU21623XXSP,2013-02-28 00:12:00,
2013-02-27 16:17:00,48.9,34.8,30.17,South,180,1.6,1.6,58,0.00,,,0.02,WUHU21623XXSP,2013-02-28 00:17:00,
2013-02-27 16:22:00,48.9,34.8,30.17,SSW,202,0.0,1.6,58,0.00,,,0.02,WUHU21623XXSP,2013-02-28 00:22:00,
2013-02-27 16:27:00,48.9,34.8,30.16,SE,135,0.0,0.0,58,0.00,,,0.02,WUHU21623XXSP,2013-02-28 00:27:00,
2013-02-27 16:32:00,48.9,34.8,30.16,South,180,0.0,0.0,58,0.00,,,0.02,WUHU21623XXSP,2013-02-28 00:32:00,
2013-02-27 16:37:00,48.7,34.6,30.16,South,180,0.0,0.0,58,0.00,,,0.02,WUHU21623XXSP,2013-02-28 00:37:00,
2013-02-27 16:42:00,48.9,34.8,30.16,South,180,0.0,0.0,58,0.00,,,0.02,WUHU21623XXSP,2013-02-28 00:42:00,
2013-02-27 16:47:00,48.7,34.6,30.16,ESE,112,0.0,0.0,58,0.00,,,0.02,WUHU21623XXSP,2013-02-28 00:47:00,
2013-02-27 16:53:00,48.7,34.6,30.16,SE,135,0.0,0.0,58,0.00,,,0.02,WUHU21623XXSP,2013-02-28 00:53:00,
2013-02-27 16:58:00,48.7,34.6,30.16,SE,135,0.0,0.0,58,0.00,,,0.02,WUHU21623XXSP,2013-02-28 00:58:00,
2013-02-27 17:03:00,48.6,34.4,30.16,ESE,112,0.0,5.1,58,0.00,,,0.02,WUHU21623XXSP,2013-02-28 01:03:00,
2013-02-27 17:08:00,48.6,34.4,30.16,SSW,202,0.0,5.1,58,0.00,,,0.02,WUHU21623XXSP,2013-02-28 01:08:00,
2013-02-27 17:13:00,48.6,34.4,30.17,ENE,67,0.0,0.0,58,0.00,,,0.02,WUHU21623XXSP,2013-02-28 01:13:00,
2013-02-27 17:18:00,48.6,34.0,30.16,SSW,202,0.0,0.0,57,0.00,,,0.02,WUHU21623XXSP,2013-02-28 01:18:00,
2013-02-27 17:23:00,48.4,33.8,30.16,SE,135,0.0,0.0,57,0.00,,,0.02,WUHU21623XXSP,2013-02-28 01:23:00,
2013-02-27 17:28:00,48.4,33.8,30.16,SW,225,0.0,0.0,57,0.00,,,0.02,WUHU21623XXSP,2013-02-28 01:28:00,
2013-02-27 17:33:00,48.4,33.8,30.16,South,180,0.0,0.0,57,0.00,,,0.02,WUHU21623XXSP,2013-02-28 01:33:00,
2013-02-27 17:38:00,48.2,33.7,30.16,SSW,202,0.0,0.0,57,0.00,,,0.02,WUHU21623XXSP,2013-02-28 01:38:00,
2013-02-27 17:43:00,48.0,33.5,30.16,SE,135,0.0,0.0,57,0.00,,,0.02,WUHU21623XXSP,2013-02-28 01:43:00,
2013-02-27 17:48:00,48.0,33.0,30.16,SSE,157,0.0,0.0,56,0.00,,,0.02,WUHU21623XXSP,2013-02-28 01:48:00,
2013-02-27 17:53:00,48.0,33.0,30.15,ENE,67,0.0,0.0,56,0.00,,,0.02,WUHU21623XXSP,2013-02-28 01:53:00,
2013-02-27 17:58:00,48.0,33.0,30.15,ENE,67,0.0,0.0,56,0.00,,,0.02,WUHU21623XXSP,2013-02-28 01:58:00,
2013-02-27 18:03:00,48.0,33.0,30.14,SE,135,0.0,0.0,56,0.00,,,0.02,WUHU21623XXSP,2013-02-28 02:03:00,
2013-02-27 18:08:00,48.0,33.0,30.14,SE,135,0.0,0.0,56,0.00,,,0.02,WUHU21623XXSP,2013-02-28 02:08:00,
2013-02-27 18:13:00,47.8,32.8,30.14,SE,135,0.0,0.0,56,0.00,,,0.02,WUHU21623XXSP,2013-02-28 02:13:00,
2013-02-27 18:18:00,47.8,32.8,30.14,SE,135,0.0,0.0,56,0.00,,,0.02,WUHU21623XXSP,2013-02-28 02:18:00,
2013-02-27 18:23:00,47.7,32.2,30.14,NE,45,0.0,0.0,55,0.00,,,0.02,WUHU21623XXSP,2013-02-28 02:23:00,
2013-02-27 18:27:00,47.7,32.2,30.14,NE,45,0.0,0.0,55,0.00,,,0.02,WUHU21623XXSP,2013-02-28 02:27:00,
2013-02-27 18:32:00,47.5,32.0,30.14,NE,45,0.0,0.0,55,0.00,,,0.02,WUHU21623XXSP,2013-02-28 02:32:00,
2013-02-27 18:37:00,47.5,32.0,30.14,NE,45,0.0,0.0,55,0.00,,,0.02,WUHU21623XXSP,2013-02-28 02:37:00,
2013-02-27 18:42:00,47.5,32.0,30.15,NE,45,0.0,0.0,55,0.00,,,0.02,WUHU21623XXSP,2013-02-28 02:42:00,
2013-02-27 18:47:00,47.5,31.6,30.14,NE,45,0.0,0.0,54,0.00,,,0.02,WUHU21623XXSP,2013-02-28 02:47:00,
2013-02-27 18:52:00,47.3,31.4,30.14,NE,45,0.0,0.0,54,0.00,,,0.02,WUHU21623XXSP,2013-02-28 02:52:00,
2013-02-27 18:57:00,47.3,31.4,30.13,NE,45,0.0,0.0,54,0.00,,,0.02,WUHU21623XXSP,2013-02-28 02:57:00,
2013-02-27 19:02:00,47.3,30.9,30.13,NE,45,0.0,0.0,53,0.00,,,0.02,WUHU21623XXSP,2013-02-28 03:02:00,
2013-02-27 19:07:00,47.3,30.9,30.13,NE,45,0.0,0.0,53,0.00,,,0.02,WUHU21623XXSP,2013-02-28 03:07:00,
2013-02-27 19:12:00,47.3,30.9,30.13,SSE,157,0.0,0.0,53,0.00,,,0.02,WUHU21623XXSP,2013-02-28 03:12:00,
2013-02-27 19:18:00,47.1,30.8,30.14,ESE,112,0.0,0.0,53,0.00,,,0.02,WUHU21623XXSP,2013-02-28 03:18:00,
2013-02-27 19:22:00,47.1,30.3,30.14,ESE,112,0.0,0.0,52,0.00,,,0.02,WUHU21623XXSP,2013-02-28 03:22:00,
2013-02-27 19:27:00,47.1,30.3,30.14,ESE,112,0.0,0.0,52,0.00,,,0.02,WUHU21623XXSP,2013-02-28 03:27:00,
2013-02-27 19:32:00,47.1,30.3,30.14,East,90,0.0,0.0,52,0.00,,,0.02,WUHU21623XXSP,2013-02-28 03:32:00,
2013-02-27 19:38:00,47.1,30.3,30.14,ENE,67,0.0,0.0,52,0.00,,,0.02,WUHU21623XXSP,2013-02-28 03:38:00,
2013-02-27 19:43:00,47.1,30.3,30.14,ESE,112,0.0,0.0,52,0.00,,,0.02,WUHU21623XXSP,2013-02-28 03:43:00,
2013-02-27 19:48:00,47.1,29.9,30.14,NNE,22,0.0,0.0,51,0.00,,,0.02,WUHU21623XXSP,2013-02-28 03:48:00,
2013-02-27 19:53:00,47.1,29.9,30.15,NE,45,0.0,0.0,51,0.00,,,0.02,WUHU21623XXSP,2013-02-28 03:53:00,
2013-02-27 19:58:00,47.1,29.9,30.14,NE,45,0.0,0.0,51,0.00,,,0.02,WUHU21623XXSP,2013-02-28 03:58:00,
2013-02-27 20:03:00,47.1,29.9,30.15,SSE,157,0.0,0.0,51,0.00,,,0.02,WUHU21623XXSP,2013-02-28 04:03:00,
2013-02-27 20:08:00,47.1,29.9,30.16,NE,45,0.0,0.0,51,0.00,,,0.02,WUHU21623XXSP,2013-02-28 04:08:00,
2013-02-27 20:13:00,47.1,29.4,30.16,NE,45,0.0,0.0,50,0.00,,,0.02,WUHU21623XXSP,2013-02-28 04:13:00,
2013-02-27 20:18:00,47.1,29.4,30.16,WSW,247,0.0,0.0,50,0.00,,,0.02,WUHU21623XXSP,2013-02-28 04:18:00,
2013-02-27 20:23:00,47.1,29.4,30.15,WSW,247,0.0,0.0,50,0.00,,,0.02,WUHU21623XXSP,2013-02-28 04:23:00,
2013-02-27 20:27:00,47.1,29.4,30.15,WSW,247,0.0,0.0,50,0.00,,,0.02,WUHU21623XXSP,2013-02-28 04:27:00,
2013-02-27 20:33:00,47.1,29.4,30.16,WSW,247,0.0,0.0,50,0.00,,,0.02,WUHU21623XXSP,2013-02-28 04:33:00,
2013-02-27 20:38:00,47.1,28.9,30.15,WSW,247,0.0,0.0,49,0.00,,,0.02,WUHU21623XXSP,2013-02-28 04:38:00,
2013-02-27 20:43:00,46.9,28.7,30.16,West,270,0.0,0.0,49,0.00,,,0.02,WUHU21623XXSP,2013-02-28 04:43:00,
2013-02-27 20:48:00,46.9,28.7,30.16,WSW,247,0.0,0.0,49,0.00,,,0.02,WUHU21623XXSP,2013-02-28 04:48:00,
2013-02-27 20:53:00,46.9,28.7,30.16,WSW,247,0.0,0.0,49,0.00,,,0.02,WUHU21623XXSP,2013-02-28 04:53:00,
2013-02-27 20:58:00,46.9,28.2,30.16,SW,225,0.0,0.0,48,0.00,,,0.02,WUHU21623XXSP,2013-02-28 04:58:00,
2013-02-27 21:00:00,46.9,28.2,30.16,SW,225,0.0,0.0,48,0.00,,,0.02,WUHU21623XXSP,2013-02-28 05:00:00,
2013-02-27 21:05:00,46.8,28.0,30.16,West,270,0.0,0.0,48,0.00,,,0.02,WUHU21623XXSP,2013-02-28 05:05:00,
2013-02-27 21:10:00,46.8,28.0,30.16,WNW,292,0.0,0.0,48,0.00,,,0.02,WUHU21623XXSP,2013-02-28 05:10:00,
2013-02-27 21:15:00,46.8,27.5,30.16,WNW,292,0.0,0.0,47,0.00,,,0.02,WUHU21623XXSP,2013-02-28 05:15:00,
2013-02-27 21:20:00,46.6,27.3,30.16,ENE,67,0.0,0.0,47,0.00,,,0.02,WUHU21623XXSP,2013-02-28 05:20:00,
2013-02-27 21:25:00,46.6,27.3,30.16,ENE,67,0.0,0.0,47,0.00,,,0.02,WUHU21623XXSP,2013-02-28 05:25:00,
2013-02-27 21:30:00,46.6,26.8,30.16,ENE,67,0.0,0.0,46,0.00,,,0.02,WUHU21623XXSP,2013-02-28 05:30:00,
2013-02-27 21:35:00,46.6,26.8,30.15,SSE,157,0.0,0.0,46,0.00,,,0.02,WUHU21623XXSP,2013-02-28 05:35:00,
2013-02-27 21:40:00,46.6,26.8,30.15,ESE,112,0.0,0.0,46,0.00,,,0.02,WUHU21623XXSP,2013-02-28 05:40:00,
2013-02-27 21:45:00,46.6,26.2,30.15,ENE,67,0.0,0.0,45,0.00,,,0.02,WUHU21623XXSP,2013-02-28 05:45:00,
2013-02-27 21:50:00,46.6,26.2,30.15,ESE,112,0.0,0.0,45,0.00,,,0.02,WUHU21623XXSP,2013-02-28 05:50:00,
2013-02-27 21:55:00,46.6,26.2,30.14,ESE,112,0.0,0.0,45,0.00,,,0.02,WUHU21623XXSP,2013-02-28 05:55:00,
2013-02-27 22:00:00,46.4,26.1,30.14,ESE,112,0.0,0.0,45,0.00,,,0.02,WUHU21623XXSP,2013-02-28 06:00:00,
2013-02-27 22:05:00,46.2,25.4,30.14,ENE,67,0.0,0.0,44,0.00,,,0.02,WUHU21623XXSP,2013-02-28 06:05:00,
2013-02-27 22:10:00,46.2,25.4,30.14,ENE,67,0.0,0.0,44,0.00,,,0.02,WUHU21623XXSP,2013-02-28 06:10:00,
2013-02-27 22:15:00,46.2,24.8,30.14,ENE,67,0.0,0.0,43,0.00,,,0.02,WUHU21623XXSP,2013-02-28 06:15:00,
2013-02-27 22:20:00,46.0,24.7,30.15,ESE,112,0.0,0.0,43,0.00,,,0.02,WUHU21623XXSP,2013-02-28 06:20:00,
2013-02-27 22:25:00,46.0,24.1,30.15,NE,45,0.0,0.0,42,0.00,,,0.02,WUHU21623XXSP,2013-02-28 06:25:00,
2013-02-27 22:30:00,45.7,23.3,30.14,NE,45,0.0,0.0,41,0.00,,,0.02,WUHU21623XXSP,2013-02-28 06:30:00,
2013-02-27 22:35:00,45.7,22.7,30.14,North,0,0.0,0.0,40,0.02,,,0.04,WUHU21623XXSP,2013-02-28 06:35:00,
2013-02-27 22:40:00,45.5,22.5,30.14,ENE,67,0.0,0.0,40,0.02,,,0.04,WUHU21623XXSP,2013-02-28 06:40:00,
2013-02-27 22:45:00,45.3,21.7,30.14,NE,45,0.0,0.0,39,0.02,,,0.04,WUHU21623XXSP,2013-02-28 06:45:00,
2013-02-27 22:50:00,45.1,20.9,30.14,SSE,157,0.0,0.0,38,0.02,,,0.04,WUHU21623XXSP,2013-02-28 06:50:00,
2013-02-27 22:55:00,45.1,20.2,30.14,SSE,157,0.0,0.0,37,0.02,,,0.04,WUHU21623XXSP,2013-02-28 06:55:00,
2013-02-27 23:00:00,45.0,20.1,30.14,ENE,67,0.0,0.0,37,0.02,,,0.04,WUHU21623XXSP,2013-02-28 07:00:00,
2013-02-27 23:05:00,45.0,19.4,30.14,NE,45,0.0,0.0,36,0.02,,,0.04,WUHU21623XXSP,2013-02-28 07:05:00,
2013-02-27 23:10:00,45.0,19.4,30.14,East,90,0.0,0.0,36,0.02,,,0.04,WUHU21623XXSP,2013-02-28 07:10:00,
2013-02-27 23:15:00,44.8,18.6,30.14,WNW,292,0.0,0.0,35,0.02,,,0.04,WUHU21623XXSP,2013-02-28 07:15:00,
2013-02-27 23:20:00,44.8,18.6,30.14,WNW,292,0.0,0.0,35,0.02,,,0.04,WUHU21623XXSP,2013-02-28 07:20:00,
2013-02-27 23:25:00,44.6,18.4,30.14,WNW,292,0.0,0.0,35,0.02,,,0.04,WUHU21623XXSP,2013-02-28 07:25:00,
2013-02-27 23:30:00,44.4,18.2,30.14,WNW,292,0.0,0.0,35,0.00,,,0.04,WUHU21623XXSP,2013-02-28 07:30:00,
2013-02-27 23:35:00,44.6,18.4,30.14,WNW,292,0.0,0.0,35,0.00,,,0.04,WUHU21623XXSP,2013-02-28 07:35:00,
2013-02-27 23:40:00,44.4,18.2,30.14,WNW,292,0.0,0.0,35,0.00,,,0.04,WUHU21623XXSP,2013-02-28 07:40:00,
2013-02-27 23:45:00,44.4,18.2,30.14,WNW,292,0.0,0.0,35,0.00,,,0.04,WUHU21623XXSP,2013-02-28 07:45:00,
2013-02-27 23:50:00,44.4,18.2,30.14,WNW,292,0.0,0.0,35,0.00,,,0.04,WUHU21623XXSP,2013-02-28 07:50:00,
2013-02-27 23:55:00,44.4,18.2,30.13,WNW,292,0.0,0.0,35,0.02,,,0.06,WUHU21623XXSP,2013-02-28 07:55:00,